Regional Weather Roundup
Issued by NWS Grand Forks, ND

Home | Current Version | Previous Version | Graphics & Text | Print | Product List | Glossary On
Versions: 1 2 3 4 5 6 7 8 9 10 11 12 13 14 15 16 17 18 19 20 21 22 23 24 25 26 27 28 29 30 31 32 33 34 35 36 37 38 39 40 41 42 43 44 45 46 47 48 49 50
000
ASUS43 KFGF 250931
RWRFGF
PRAIRIE TO PINES  WEATHER ROUNDUP
NATIONAL WEATHER SERVICE EASTERN NORTH DAKOTA/GRAND FORKS ND
400 AM CDT WED MAY 25 2016

 **SATELLITE DATA USED TO AUGMENT SKY COVER AT AUTOMATED STATIONS**
 *****  WEATHER ACROSS EASTERN NORTH DAKOTA  *****

CITY           SKY/WX    TMP DP  RH WIND       PRES   REMARKS
GRAND FORKS    CLOUDY    59  52  77 E7        29.87S
GRAND FRKS AFB CLOUDY    60  51  73 SE6       29.87F
GRAND FRKS NWS   N/A     59 N/A N/A E7          N/A
DEVILS LAKE    CLOUDY    63  51  65 E10       29.87S
FARGO          CLOUDY    66  50  56 E12       29.84F
WAHPETON ARPT  CLOUDY    63  48  59 E7        29.83S
$$

 ***** WEATHER ACROSS CENTRAL AND WESTERN NORTH DAKOTA  *****

CITY           SKY/WX    TMP DP  RH WIND       PRES   REMARKS
BISMARCK       LGT RAIN  59  54  83 NE10      29.85R
MINOT          RAIN      59  52  77 S8        29.88R
JAMESTOWN      NOT AVBL
MINOT AFB      LGT RAIN  55  52  88 SE6       29.86R
GARRISON         N/A     58  51  78 NE7       29.84S
WILLISTON      LGT RAIN  56  43  61 N9        29.88S
DICKINSON      CLOUDY    52  49  89 NE9       29.80F
HETTINGER      CLOUDY    53  47  79 E9        29.81F
$$

 *****  OTHER AIRPORT OBSERVATIONS IN OUR AREA  *****

CITY           SKY/WX    TMP DP  RH WIND       PRES   REMARKS
WALHALLA       FAIR      50  50 100 S3        29.90S
GRAFTON AIRPOR FAIR      57  55  94 E7        29.90S
VALLEY CITY AR FAIR      61  55  82 E9        29.85F
CANDO          FAIR      59  50  72 E9        29.89S
CAVALIER APRT  FAIR      54  54 100 CALM      29.90S
GWINNER        FAIR      64  55  72 E10       29.80F
SHEYENNE NWR     N/A     61  52  72 E8        29.95S
ROLLA          PTSUNNY   54  46  76 CALM      29.90S
 ***** THE ABOVE OBSERVATIONS ARE NON NWS ARE NOT QUALITY
       CONTROLLED AND MAY MIS-REPORT RAIN FOR SNOW...
$$

  *****  WEATHER ACROSS NORTHERN MINNESOTA  *****

CITY           SKY/WX    TMP DP  RH WIND       PRES   REMARKS
FLAG ISLAND    CLEAR     57  55  94 S8        29.94R
WARROAD        CLOUDY    55  52  88 S3        29.96R
ROSEAU         CLOUDY    50  45  81 NE3       29.94S
HALLOCK        MOCLDY    63  52  67 SE10      29.89S
THF RVR FALLS  CLOUDY    59  50  72 E9        29.92F
BAUDETTE       CLOUDY    51  49  92 S5        29.96R
WASKISH        PTCLDY    52  50  93 E6        29.96S
CROOKSTON      CLOUDY    61  52  72 E10       29.88F
STEPHEN NDAWN    N/A     59  54  82 SE7         N/A
GREENBUSH NDAW   N/A     57  54  88 SE6         N/A
$$
  *****  WEATHER ACROSS CENTRAL AND WEST MINNESOTA  *****

CITY           SKY/WX    TMP DP  RH WIND       PRES   REMARKS
FOSSTON        CLOUDY    55  48  76 E3        29.91F
BEMIDJI        CLOUDY    56  53  88 E6        29.94F
PARK RAPIDS    PTCLDY    61  52  72 E10       29.92F
ELBOW LAKE     FAIR      63  54  71 SE12      29.84F
WADENA         CLOUDY    57  52  82 E8        29.89F
DETROIT LAKES  MOCLDY    63  48  59 SE9G16    29.89F
MOORHEAD       CLOUDY    66  48  52 E13       29.84F
FERGUS FALLS   CLOUDY    66  52  59 E13       29.81F
MORRIS MN      MOCLDY    64  55  72 E13       29.82F
STAPLES        PTCLDY    57  54  88 E7        29.91F
$$
  *****  WEATHER ELSEWHERE ACROSS MINNESOTA  *****

CITY           SKY/WX    TMP DP  RH WIND       PRES   REMARKS
DULUTH         FOG       50  49  96 E10       30.02R VSB 1/2
INTRNTL FALLS  CLEAR     46  45  96 SE3       29.97S
ELY            CLOUDY    52  50  93 SE5       30.03R
CLOQUET        FOG       48  46  93 E8        30.02S VSB 1/2
WHEATON        CLOUDY    64  55  72 E9        29.83F
BRAINERD       CLOUDY    56  56 100 E9        29.95F
HIBBING        CLOUDY    52  51  97 SE8       30.01S
ALEXANDRIA     CLOUDY    62  52  69 SE13      29.89F
SAINT CLOUD    CLOUDY    61  55  81 E9        29.90F
MINNEAPOLIS    CLOUDY    67  56  67 E6        29.90F
$$

  *****  WEATHER ACROSS SOUTH DAKOTA  *****

CITY           SKY/WX    TMP DP  RH WIND       PRES   REMARKS
SIOUX FALLS    LGT RAIN  67  63  87 SE12      29.75F
BROOKINGS      CLOUDY    66  61  84 SE14      29.76F
WATERTOWN      CLOUDY    67  59  75 CALM      29.79F
HURON          LGT RAIN  63  60  90 N12       29.73F
SISSETON         N/A     60  52  74 SW3       29.81F
ABERDEEN       LGT RAIN  62  56  80 W16       29.80F
MITCHELL       RAIN      60  59  96 E13       29.73F
PIERRE         CLOUDY    57  54  89 N14       29.74R
MOBRIDGE       RAIN      60  53  77 SE23G33   29.81R
RAPID CITY     PTCLDY    49  47  93 CALM      29.84F
$$

  *****  SOME WEATHER IN NEARBY STATES *****

CITY           SKY/WX    TMP DP  RH WIND       PRES   REMARKS
GLASGOW MT     PTCLDY    44  41  89 N5        29.87S
GREAT FALLS MT CLEAR     39  36  89 SW8       29.89S
CHEYENNE WY    CLEAR     50  34  54 NW12      29.94S
SCOTTSBLUFF NE CLOUDY    52  48  86 N5        29.88F
OMAHA NE       LGT RAIN  66  60  81 SE10      29.79S
DES MOINES IA  CLOUDY    67  63  87 E8        29.83F THUNDER
DAVENPORT IA   CLEAR     64  60  87 SE7       29.93F
CHICAGO IL     MOCLDY    70  61  73 SW7       29.99R
EAU CLAIRE WI  CLOUDY    57  55  93 NE3       29.95F
LA CROSSE WI   CLEAR     61  57  87 SE9       29.93F
$$

  *****  SOME NATIONAL WEATHER *****

CITY           SKY/WX    TMP DP  RH WIND       PRES   REMARKS
LA GUARDIA NY  CLEAR     63  56  78 CALM      30.02R
RALEIGH NC     MOCLDY    63  55  75 SW3       30.18R
ATLANTA GA     PTCLDY    68  53  58 CALM      30.17S
NEW ORLEANS LA PTCLDY    76  72  87 SE7       30.07F
OKLAHOMA CITY  CLOUDY    76  72  87 S16G22    29.86S
ALBUQUERQUE NM CLEAR     61  15  16 N5        30.07S
SALT LAKE CITY MOCLDY    53  39  59 SE7       29.96R
LOS ANGELES CA MOCLDY    58  52  80 W6        30.04F
BOISE ID       PTCLDY    53  41  63 NW5       29.92R
SEATTLE WA     MOCLDY    56  51  84 SW3       30.05S
$$

*** WEATHER ACROSS MANITOBA...SASKATCHEWAN AND ONTARIO ***
                ***ONTARIO***

CITY           SKY/WX    TMP DP  RH WIND       PRES   REMARKS
GERALDTON      PTCLDY    43  39  87 E10       30.09F
THUNDER BAY    CLOUDY    50  46  87 E6        30.08R
SIOUX LOOKOUT  CLOUDY    50  48  93 SE3       30.02R
TORONTO        PTCLDY    63  45  51 W10       29.97S
BIG TROUT LK   CLOUDY    45  37  76 SE7       30.06F
PICKLE LAKE    NOT AVBL
DRYDEN         FOG       52  50  93 E3        29.99S VSB 1/4
KENORA         PTCLDY    52  50  93 SE7       29.96S
$$
                *** MANITOBA***

CITY           SKY/WX    TMP DP  RH WIND       PRES   REMARKS
BRANDON        MOCLDY    52  50  93 NE12      29.90F
DAUPHIN        CLOUDY    50  48  93 CALM      29.93R
ISLAND LAKE    NOT AVBL
PILOT MOUND      N/A     55  48  76 E7          N/A
THE PAS        MOCLDY    43  41  93 CALM      29.97R
THOMPSON       MOCLDY    39  36  87 VRB2      30.02S
WINNIPEG       MOCLDY    55  48  76 S7        29.91S
LYNN LAKE      CLOUDY    46  39  76 S6        29.96S
CHURCHILL      CLOUDY    32  27  80 SE9       30.12S WCI  24
GILLAM         LGT RAIN  39  34  81 SE3       30.07S
$$
                ***SASKATCHEWAN***

CITY           SKY/WX    TMP DP  RH WIND       PRES   REMARKS
ESTEVAN          N/A     43  37  81 SE7       29.88R
KINDERSLEY     MOCLDY    46  45  93 NE7       29.88S
LLOYDMINSTER   FOG       39  39 100 VRB2      29.90R VSB 1
PRINCE ALBERT  MOCLDY    43  43 100 E7        29.92R FOG
REGINA         CLEAR     43  39  87 E2        29.87F
YORKTON        FOG       46  45  93 CALM      29.89F VSB 3/4
N. BATTLEFORD  CLOUDY    48  46  93 E6        29.93R
LA RONGE       PTCLDY    45  43  93 CALM      29.93R
SASKATOON      CLEAR     43  43 100 NE9       29.89S
SWIFT CURRENT  FOG       45  45 100 SW6       29.86S VSB 1/4
$$
NOTE: THESE ARE AUTOMATED STATIONS WITH LIMITED QUALITY CONTROL
      "FAIR" INDICATES FEW OR NO CLOUDS BELOW 12,000 FEET WITH NO
      SIGNIFICANT WEATHER AND/OR OBSTRUCTIONS TO VISIBILITY.
      SKY/WX - SKY CONDITION AND SIGNIFICANT WEATHER.
      TMP - AIR TEMPERATURE.    DP   - DEWPOINT TEMPERATURE.
      RH  - RELATIVE HUMIDITY.  PRES - PRESSURE.
      HX  - HEAT INDEX.         WCI  - WIND CHILL INDEX.
$




USA.gov is the U.S. government's official web portal to all federal, state and local government web resources and services.